TimeEST,TemperatureF,Dew PointF,Humidity,Sea Level PressureIn,VisibilityMPH,Wind Direction,Wind SpeedMPH,Gust SpeedMPH,PrecipitationIn,Events,Conditions,WindDirDegrees,DateUTC
12:53 AM,57.0,50.0,77,30.35,10.0,Calm,Calm,-,N/A,,Partly Cloudy,0,2012-01-17 05:53:00
1:53 AM,55.9,50.0,80,30.34,10.0,Calm,Calm,-,N/A,,Clear,0,2012-01-17 06:53:00
2:53 AM,55.9,50.0,80,30.32,10.0,Calm,Calm,-,N/A,,Clear,0,2012-01-17 07:53:00
3:53 AM,53.1,48.0,83,30.30,10.0,Calm,Calm,-,N/A,,Partly Cloudy,0,2012-01-17 08:53:00
4:53 AM,54.0,50.0,86,30.29,10.0,Calm,Calm,-,N/A,,Clear,0,2012-01-17 09:53:00
5:53 AM,55.0,50.0,83,30.30,10.0,Calm,Calm,-,N/A,,Clear,0,2012-01-17 10:53:00
6:53 AM,53.6,48.2,82,30.31,10.0,Calm,Calm,-,N/A,,Scattered Clouds,0,2012-01-17 11:53:00
7:53 AM,54.0,48.9,83,30.32,10.0,ENE,3.5,-,N/A,,Clear,60,2012-01-17 12:53:00
8:53 AM,59.0,51.1,75,30.34,10.0,Calm,Calm,-,N/A,,Partly Cloudy,0,2012-01-17 13:53:00
9:53 AM,66.0,55.0,68,30.34,10.0,SSE,6.9,-,N/A,,Scattered Clouds,150,2012-01-17 14:53:00
10:53 AM,70.0,55.0,59,30.31,10.0,SSE,4.6,-,N/A,,Mostly Cloudy,150,2012-01-17 15:53:00
11:53 AM,72.0,55.0,55,30.29,10.0,SSW,8.1,-,N/A,,Scattered Clouds,200,2012-01-17 16:53:00
12:53 PM,73.0,54.0,51,30.25,10.0,SSW,6.9,-,N/A,,Scattered Clouds,200,2012-01-17 17:53:00
1:53 PM,73.9,53.1,48,30.22,10.0,Variable,4.6,-,N/A,,Clear,0,2012-01-17 18:53:00
2:53 PM,73.9,55.0,52,30.22,10.0,SW,6.9,-,N/A,,Scattered Clouds,230,2012-01-17 19:53:00
3:53 PM,73.0,54.0,51,30.21,10.0,SW,5.8,-,N/A,,Scattered Clouds,230,2012-01-17 20:53:00
4:53 PM,71.1,55.0,57,30.20,10.0,WSW,5.8,-,N/A,,Scattered Clouds,240,2012-01-17 21:53:00
5:53 PM,66.9,55.0,66,30.20,10.0,SSW,4.6,-,N/A,,Scattered Clouds,200,2012-01-17 22:53:00
6:53 PM,64.0,57.0,78,30.20,10.0,SW,3.5,-,N/A,,Clear,220,2012-01-17 23:53:00
7:53 PM,64.0,55.9,75,30.21,10.0,SSW,3.5,-,N/A,,Clear,210,2012-01-18 00:53:00
8:53 PM,62.1,55.0,78,30.22,10.0,Calm,Calm,-,N/A,,Clear,0,2012-01-18 01:53:00
9:53 PM,64.0,55.0,73,30.20,10.0,Calm,Calm,-,N/A,,Clear,0,2012-01-18 02:53:00
10:53 PM,62.1,55.9,80,30.20,10.0,Calm,Calm,-,N/A,,Clear,0,2012-01-18 03:53:00
11:53 PM,62.1,57.0,84,30.18,10.0,Calm,Calm,-,N/A,,Clear,0,2012-01-18 04:53:00